Location: Aigremont
(47.7188°N, 3.8925°E)
Time: 10:19:42
(UTC+00:00)

Cosmos 1802 Rocket - Pass Details

Date: 18 February 2020
Orbit: 954 x 1012 km, 82.9° (Epoch: 08 April)

Event Time Altitude Azimuth Distance (km) Brightness Sun altitude
Rises 05:52:38 0° 347° (NNW) 3,754 6.9 -9.7°
Reaches altitude 10° 05:55:15 10° 342° (NNW) 2,802 6.2 -9.2°
Maximum altitude 06:01:24 50° 270° (W) 1,275 4.3 -8.2°
Drops below altitude 10° 06:07:32 10° 197° (SSW) 2,780 6.3 -7.2°
Sets 06:10:07 0° 192° (SSW) 3,721 7.0 -6.8°
